Change the Weather History Date:

Friday, January 11, 2013

  Actual Average Record
Temperature  
Mean Temperature 11 °F -  
Max Temperature 21 °F 38 °F 52 °F (2014)
Min Temperature -2 °F 18 °F -2 °F (2013)
Degree Days  
Heating Degree Days 54    
Moisture  
Dew Point 9 °F    
Average Humidity 77    
Maximum Humidity 93    
Minimum Humidity 45    
Precipitation  
Precipitation 0.16 in - - ()
Sea Level Pressure  
Sea Level Pressure 29.85 in    
Wind  
Wind Speed 8 mph (NNW)    
Max Wind Speed 16 mph    
Max Gust Speed -    
Visibility 7 miles    
Events Snow    
Averages and records for this station are not official NWS values.
T = Trace of Precipitation, MM = Missing Value Source: NWS Daily Summary

Daily Weather History Graph

Daily Weather History Graph

Search for Another Location

Airport or City:

Trip Planner

Search our weather history database for the weather conditions in past years. The results will help you decide how hot, cold, wet, or windy it might be!

Date:

Astronomy

Jan. 11, 2013 Rise Set
Actual Time 7:48 AM MST 5:31 PM MST
Civil Twilight 7:19 AM MST 6:00 PM MST
Nautical Twilight 6:47 AM MST 6:33 PM MST
Astronomical Twilight 6:15 AM MST 7:05 PM MST
Moon 7:25 AM MST (1/11) 5:53 PM MST (1/11)
Length of Visible Light 10h 41m
Length of Day
9h 42m
Waning Crescent, 0% of the Moon is Illuminated
Jan 11
Waning Crescent
Jan 11
New
Jan 18
First Quarter
Jan 26
Full
Feb 3
Last Quarter

Hourly Weather History & Observations

Time (MST) Temp. Windchill Dew Point Humidity Pressure Visibility Wind Dir Wind Speed Gust Speed Precip Events Conditions
12:14 AM 21.2 °F 10.1 °F 17.6 °F 86% 29.66 in 0.8 mi NNE 10.4 mph - 0.01 in Snow Light Snow
12:19 AM 21.2 °F 9.5 °F 17.6 °F 86% 29.65 in 0.8 mi NE 11.5 mph - 0.02 in Snow Light Snow
12:38 AM 19.4 °F 5.0 °F 17.6 °F 93% 29.66 in 1.0 mi NNE 16.1 mph - 0.03 in   Mist
12:52 AM 19.9 °F 6.2 °F 17.1 °F 89% 29.68 in 0.8 mi NNE 15.0 mph - 0.03 in   Mist
1:29 AM 19.4 °F 7.2 °F 17.6 °F 93% 29.65 in 1.0 mi NNE 11.5 mph - 0.03 in   Mist
1:52 AM 19.9 °F 11.1 °F 17.1 °F 89% 29.69 in 1.5 mi North 6.9 mph - 0.05 in   Overcast
2:00 AM 19.4 °F 10.4 °F 17.6 °F 93% 29.66 in 1.2 mi North 6.9 mph - N/A   Overcast
2:20 AM 19.4 °F 10.4 °F 17.6 °F 93% 29.66 in 1.8 mi North 6.9 mph - 0.01 in Snow Light Snow
2:44 AM 19.4 °F 10.4 °F 17.6 °F 93% 29.67 in 2.0 mi NNE 6.9 mph - 0.02 in Snow Light Snow
2:52 AM 19.9 °F 11.1 °F 17.1 °F 89% 29.71 in 3.0 mi NNE 6.9 mph - 0.02 in Snow Light Snow
2:59 AM 19.4 °F 10.4 °F 17.6 °F 93% 29.67 in 5.0 mi NNE 6.9 mph - 0.00 in Snow Light Snow
3:30 AM 19.4 °F 12.8 °F 15.8 °F 86% 29.68 in 3.0 mi NNE 4.6 mph - 0.00 in Snow Light Snow
3:45 AM 19.4 °F 12.8 °F 15.8 °F 86% 29.68 in 1.0 mi NNE 4.6 mph - 0.01 in Snow Light Snow
3:52 AM 19.0 °F - 16.0 °F 88% 29.72 in 0.8 mi Calm Calm - 0.01 in Snow Light Snow
4:14 AM 19.4 °F - 15.8 °F 86% 29.69 in 1.8 mi Calm Calm - 0.02 in Snow Light Snow
4:26 AM 19.4 °F - 15.8 °F 86% 29.69 in 4.0 mi Calm Calm - 0.02 in Snow Light Snow
4:52 AM 18.0 °F - 14.0 °F 84% 29.76 in 10.0 mi Calm Calm - 0.02 in   Overcast
5:52 AM 17.1 °F 11.7 °F 12.9 °F 84% 29.81 in 10.0 mi SW 3.5 mph - N/A   Overcast
6:52 AM 16.0 °F 3.6 °F 10.9 °F 81% 29.84 in 10.0 mi South 10.4 mph - N/A   Overcast
7:52 AM 14.0 °F 3.9 °F 9.0 °F 80% 29.88 in 10.0 mi SSE 6.9 mph - N/A   Overcast
8:52 AM 12.0 °F -1.3 °F 6.1 °F 77% 29.93 in 10.0 mi SSW 10.4 mph - N/A   Overcast
9:52 AM 12.0 °F -1.3 °F 3.9 °F 70% 29.96 in 10.0 mi SSW 10.4 mph - N/A   Partly Cloudy
10:52 AM 15.1 °F 0.5 °F 3.0 °F 59% 29.97 in 10.0 mi South 13.8 mph - N/A   Clear
11:52 AM 16.0 °F 2.3 °F 6.1 °F 65% 29.97 in 10.0 mi SSW 12.7 mph - N/A   Clear
12:52 PM 19.0 °F 5.6 °F 8.1 °F 62% 29.95 in 10.0 mi SSW 13.8 mph - N/A   Clear
1:52 PM 19.9 °F 8.6 °F 9.0 °F 62% 29.95 in 10.0 mi South 10.4 mph - N/A   Clear
2:52 PM 19.9 °F 12.1 °F 9.0 °F 62% 29.96 in 10.0 mi SSW 5.8 mph - N/A   Mostly Cloudy
3:52 PM 23.0 °F 14.7 °F 9.0 °F 55% 29.95 in 10.0 mi South 6.9 mph - N/A   Overcast
5:52 PM 10.9 °F 1.4 °F 3.0 °F 70% 30.02 in 10.0 mi South 5.8 mph - N/A   Scattered Clouds
6:52 PM 6.1 °F -5.6 °F -0.0 °F 76% 30.06 in 10.0 mi SW 6.9 mph - N/A   Scattered Clouds
7:52 PM 3.0 °F - -2.9 °F 76% 30.09 in 10.0 mi Calm Calm - N/A   Clear
8:52 PM 3.0 °F -6.4 °F -2.9 °F 76% 30.10 in 10.0 mi North 4.6 mph - N/A   Clear
9:52 PM 1.9 °F -9.2 °F -4.0 °F 76% 30.13 in 10.0 mi West 5.8 mph - N/A   Overcast
10:52 PM 1.9 °F -5.6 °F -5.1 °F 72% 30.12 in 10.0 mi WNW 3.5 mph - N/A   Scattered Clouds
11:52 PM -2.0 °F - -7.1 °F 79% 30.14 in 10.0 mi Calm Calm - N/A   Clear